Погода в Верховье

Россия / Смоленская область     54°54′41″N   31°44′57″E
темп.,
°C
ветер,
м/с
пор.,
м/с
влажн.,
%
обл.,
%
осадки,
мм/ч
давл.,
гПа
погр.,
м
29 июля, чт
чт2900:00+17зсз119346 0.0 101011
03:00+16юз11950 0.0 100912
06:00+17зюз22947 0.2 100931
09:00+22зюз34764 0.2 1008359
12:00+25з3469100 0.8 1008941
15:00+29зюз344098 1.0 10062398
18:00+28зюз134585 0.0 10051527
21:00+18сз5997100 4.3 1006289
30 июля, пт
пт3000:00+18св1197100 0.7 100619
03:00+16з259819 0.7 1007112
06:00+16з279927 0.0 1007186
09:00+20зсз47770 0.0 1007480
12:00+25з57470 0.0 10071852
15:00+24з4646100 0.0 10061322
18:00+22з4758100 0.0 10061066
21:00+18зюз311575 0.0 1006305
31 июля, сб
сб3100:00+18юз28634 0.0 1006245
03:00+15юз310800 0.0 1006216
06:00+15юз413775 0.0 1006359
09:00+20зюз611555 0.0 10061082
12:00+24зюз711400 0.0 10061805
15:00+25зюз693913 0.0 10062153
18:00+24зюз574729 0.0 10071404
21:00+18юз36685 0.0 1008114
1 августа, вс
вс100:00+16ююз227572 0.0 100918
03:00+16ююв2375100 0.0 100952
06:00+15сз2285100 0.6 100822
09:00+16вюв3794100 5.0 1007328
12:00+20зюз2485100 0.1 1007678
15:00+26з465174 0.1 10061814
18:00+23з3760100 0.0 1007452
21:00+19зюз2274100 0.0 100717
2 августа, пн
пн200:00+17юз228124 0.0 100929
03:00+15ююз118451 0.0 100811
06:00+16юв2281100 0.0 100741
09:00+21юв4769100 0.0 1004380
12:00+20ю598890 1.6 1004790
15:00+22зюз5107872 2.6 1003988
18:00+19сз687360 0.3 1004904
21:00+16сз378851 0.3 1005559